www.pogodaiklimat.ru

Погода и климат >> Архив погоды >> Малые Удаленные Острова >> Паго-Паго


ПОГОДА в Паго-Паго

  • Прогноз погоды в Паго-Паго
  • Монитор погоды в Паго-Паго

АРХИВ ПОГОДЫ в Паго-Паго

Время (UTC), дата Ветер
(напр.,м/с)
 
Видим.   Явления Облачность Т
(С)
Тd
(С)
f
(%)
Тe
(С)
Тes
(С)
Комфортность P
(гПа)
Po
(гПа)
Тmin
(С)
Tmax
(С)
R
(мм)
R24
(мм)
S
(см)
12 11.07 нст 2 16 км {ливн. осадки} 8/5 600 м
[Cu Sc As op]
+26.9 +24.5 87 +38 +38 очень
душно
1012.5 1012.2 +29.5
18 11.07 В 5 17 км {ливн. осадки} 5/5 300 м
[Cu Sc]
+26.8 +24.6 88 +38 +38 очень
душно
1013.0 1012.7 0.5
00 12.07 В 6 19 км 4/4 300 м
[Cu hum]
+30.1 +25.4 76 +44 +50 опасность
перегрева
1012.2 1011.9 +26.2 4
06 12.07 ЮВ 7 16 км 8/5 300 м
[Cu hum As op]
+27.5 +24.5 84 +39 +39 очень
душно
1011.7 1011.3
12 12.07 В 6 16 км {ливн. осадки} 6/4 300 м
[Cu hum Ac As]
+27.0 +23.5 81 +37 +37 очень
душно
1012.4 1012.0 +30.2 0.8
18 12.07 В 4 16 км 9/6 600 м
[Cu Sc Ac As]
+26.7 +23.3 82 +36 +36 очень
душно
1011.5 1011.2
00 13.07 нст 3 19 км 4/3 600 м
[Cu hum Ac As]
+29.8 +25.1 76 +43 +54 опасность
перегрева
1010.5 1010.2 +26.6 0.8
06 13.07 ЮВ 3 16 км 5/5 300 м
[Sc]
+27.1 +23.7 82 +37 +37 очень
душно
1010.2 1009.8
12 13.07 ЮВ 5 16 км 4/4 300 м
[Cu hum]
+26.6 +23.6 84 +36 +36 очень
душно
1009.7 1009.3 +29.8
18 13.07 ЮВ 5 16 км 8/6 300 м
[Cu Sc Ac As]
+26.9 +23.3 81 +36 +37 очень
душно
1009.3 1009.0
00 14.07 ЮВ 6 19 км 8/8 300 м
[Cu Sc]
+28.0 +23.9 78 +39 +40 очень
душно
1009.3 1009.0 +26.6
06 14.07 ЮВ 7 16 км 9/6 300 м
[Sc diur, vesp Ac As]
+26.2 +23.3 84 +35 +35 очень
душно
1009.0 1008.6
12 14.07 В 8 16 км {ливн. осадки} 9/6 300 м
[Cu Sc Ac As]
+27.2 +24.0 83 +38 +38 очень
душно
1009.7 1009.3 +29.5 0.5
18 14.07 СВ 6 16 км 8/6 300 м
[Sc diur, vesp Ac As]
+27.1 +23.8 82 +37 +37 очень
душно
1009.7 1009.3
00 15.07 СВ 7 3200 м слаб. ливневой дождь 10/10 300 м
[Sc diur, vesp]
+26.5 +23.7 85 +36 +36 очень
душно
1010.3 1010.0 +25.8 4
06 15.07 В 5 12 км в посл. час ливневой дождь 10/10 300 м
[Sc diur, vesp]
+25.9 +23.7 88 +35 +35 очень
душно
1010.2 1009.8 9
12 15.07 ЮВ 5 16 км слаб. ливневой дождь 10/6 300 м
[Sc diur, vesp As op]
+27.0 +24.6 87 +38 +38 очень
душно
1010.7 1010.3 +29.4 4
00 16.07 СВ 6 800 м ливневой дождь 10/10 200 м
[Cu Sc]
+26.8 +24.1 85 +37 +37 очень
душно
1010.7 1010.3 +25.7 19
06 16.07 В 7 16 км {ливн. осадки} 8/6 300 м
[Cb calv Ci fib]
+27.4 +24.2 83 +38 +38 очень
душно
1010.2 1009.8 8
12 16.07 В 7 16 км {ливн. осадки} 9/5 300 м
[Cu Sc As op]
+27.0 +24.3 85 +38 +38 очень
душно
1010.3 1010.0 +30.3 0.8
18 16.07 нст 3 19 км {ливн. осадки} 9/6 300 м
[Cu Sc Ac As]
+26.9 +24.3 86 +38 +38 очень
душно
1009.3 1009.0 1
00 17.07 В 6 19 км 9/5 300 м
[Cu Sc Ac As]
+29.0 +25.2 80 +42 +44 опасность
перегрева
1009.5 1009.1 +26.3 10
06 17.07 В 4 16 км 5/4 300 м
[Cu hum Ac As]
+27.8 +24.4 82 +39 +39 очень
душно
1008.6 1008.3
12 17.07 нст 2 16 км 9/4 600 м
[Cu Sc As op Cs]
+26.7 +24.4 87 +37 +37 очень
душно
1009.7 1009.3 +30.2
18 17.07 штиль 0 16 км 3/1 600 м
[Cu hum Ci fib]
+24.9 +23.3 91 +33 +35 очень
душно
1009.7 1009.3
00 18.07 В 6 19 км 6/5 600 м
[Cu hum Ci fib]
+30.1 +24.1 70 +42 +46 опасность
перегрева
1009.7 1009.3 +24.6

 

Местоположение метеостанции Паго-Паго (Малые Удаленные Острова): широта 14.33 долгота -170.70 высота над уровнем моря 3 м.

В архиве по умолчанию представлена погода в Паго-Паго за последнюю неделю. Архивные данные за месяц целиком и за предыдущие месяцы, начиная с января 2011 года, Вы можете получить, выбрав интересующий диапазон дат из раскрывающегося списка и нажав кнопку "Ввод!".


*Определитесь, кто Вы:
робот инопланетянин человек

Внимание! Время в таблицах - всемирное. Для получения местного времени необходимо прибавить поправку, которая равна 12 ч.

Смотрите также архив погоды в соседних городах и на ближайших метеорологических станциях:

Погода на Острове Кантон (Кирибати) (1905 км)
Погода на Острове Рождества (Кирибати) (2006 км)

Пояснения к столбцам:

Ветер - указаны скорость ветра в м/с - средняя за 10 мин, порывы в срок и между сроками (в фигурных скобках) и направление, откуда дует ветер: С - северный, СВ - северо-восточный, В - восточный, ЮВ - юго-восточный, Ю - южный, ЮЗ - юго-западный, З - западный, СЗ - северо-западный.
Видимость - горизонтальная дальность видимости в метрах или километрах. При видимости от 1 до 10 км при отсутствии осадков обычно наблюдается дымка, при ухудшении видимости до 1 км и менее - туман. В сухую погоду видимость может ухудшаться дымом, пылью или мглою.
Явления - указаны атмосферные явления, наблюдавшиеся в срок или в последний час перед сроком; фигурными скобками обозначены явления, наблюдавшиеся между сроками (за 1-3 часа до срока); квадратными скобками обозначены град или гололедные отложения с указанием их диаметра в мм.
Облачность - указаны через наклонную черту общая и нижняя облачность в баллах и высота нижней границы облаков в метрах; квадратными скобками обозначены формы облаков: Ci - перистые, Cs - перисто-слоистые, Cc - перисто-кучевые, Ac - высококучевые, As - высокослоистые, Sc - слоисто-кучевые, Ns - слоисто-дождевые, Cu - кучевые, Cb - кучево-дождевые. Подробнее классификацию облаков см. в Атласе облаков (PDF).
T - Температура воздуха - температура, измеренная на высоте 2 м над землей.
Td - Температура точки росы - температура, при понижении до которой содержащийся в воздухе водяной пар достигнет насыщения.
f - Относительная влажность воздуха - влажноcть воздуха, измеренная на высоте 2 м над землей.
Te - Эффективная температура - температура, которую ощущает одетый по сезону человек в тени. Характеристика душности погоды. При расчете учитывается влияние влажности воздуха и скорости ветра на теплоощущения человека.
Tes - Эффективная температура на солнце - температура, которую ощущает человек, с поправкой на солнечный нагрев. Характеристика знойности погоды. Зависит от высоты солнца над горизонтом, облачности и скорости ветра. Ночью, в пасмурную погоду, а также при ветре 12 м/с и более поправка равна нулю.
P - Атмосферное давление - приведенное к уровню моря атмосферное давление.
Po - Атмосферное давление - измеренное на уровне метеостанции атмосферное давление.
Tmin - Минимальная температура - минимум температуры воздуха на высоте 2 м над землей.
Tmax - Максимальная температура - максимум температуры воздуха на высоте 2 м над землей.
R - Количество осадков - Количество выпавших осадков за период времени, мм. При наведении курсора мыши на число - период времени, за который выпало указанное количество осадков.
R24 - Количество осадков - Количество выпавших осадков за 24 часа, мм.
S - Снежный покров - Высота снежного покрова, см. При наведении курсора мыши на число - состояние снежного покрова и степень покрытия местности в баллах.